• En España
  • Lista de países
  • Para 7 días
  • Temperatura del agua
  • Mapa Satelital
  • El tiempo en el mapa
  • Informadores
  • user-avatar
    Iniciar sesión

    Tiempo cada hora Merzouga

    Hoy, 27 Mayo, Domingo

    Tiempo Temperatura Precipitaciones Viento Presión Humedad
    00:00 +27°C° 0 mm 5 mps 697 mmHg 20%
    01:00 +26°C° 0 mm 5 mps 697 mmHg 21%
    02:00 +25°C° 0 mm 4 mps 697 mmHg 22%
    03:00 +23°C° 0 mm 4 mps 697 mmHg 23%
    04:00 +23°C° 0 mm 4 mps 697 mmHg 25%
    05:00 +22°C° 0 mm 4 mps 697 mmHg 26%
    06:00 +22°C° 0 mm 4 mps 698 mmHg 28%
    07:00 +23°C° 0 mm 5 mps 698 mmHg 24%
    08:00 +26°C° 0 mm 6 mps 698 mmHg 21%
    09:00 +27°C° 0 mm 7 mps 699 mmHg 17%
    10:00 +29°C° 0 mm 7 mps 699 mmHg 14%
    11:00 +30°C° 0 mm 7 mps 699 mmHg 12%
    12:00 +32°C° 0 mm 7 mps 699 mmHg 9%
    13:00 +33°C° 0 mm 7 mps 698 mmHg 8%
    14:00 +34°C° 0 mm 7 mps 698 mmHg 7%
    15:00 +34°C° 0 mm 6 mps 697 mmHg 7%
    16:00 +34°C° 0 mm 6 mps 697 mmHg 7%
    17:00 +34°C° 0 mm 5 mps 697 mmHg 8%
    18:00 +34°C° 0 mm 5 mps 697 mmHg 9%
    19:00 +33°C° 0 mm 4 mps 697 mmHg 10%
    20:00 +30°C° 0 mm 3 mps 697 mmHg 11%
    21:00 +29°C° 0 mm 3 mps 698 mmHg 12%
    22:00 +28°C° 0 mm 4 mps 698 mmHg 18%
    23:00 +27°C° 0 mm 5 mps 698 mmHg 24%

    Mañana, 28 Mayo, Lunes

    Tiempo Temperatura Precipitaciones Viento Presión Humedad
    00:00 +26°C° 0 mm 6 mps 698 mmHg 30%
    01:00 +24°C° 0 mm 7 mps 698 mmHg 35%
    02:00 +23°C° 0 mm 8 mps 698 mmHg 39%
    03:00 +23°C° 0 mm 8 mps 697 mmHg 43%
    04:00 +22°C° 0 mm 8 mps 697 mmHg 45%
    05:00 +22°C° 0 mm 8 mps 698 mmHg 46%
    06:00 +21°C° 0 mm 8 mps 698 mmHg 48%
    07:00 +23°C° 0 mm 8 mps 698 mmHg 43%
    08:00 +24°C° 0 mm 7 mps 698 mmHg 38%
    09:00 +27°C° 0 mm 7 mps 699 mmHg 33%
    10:00 +28°C° 0 mm 6 mps 699 mmHg 29%
    11:00 +29°C° 0 mm 5 mps 699 mmHg 25%
    12:00 +30°C° 0 mm 4 mps 699 mmHg 21%
    13:00 +31°C° 0 mm 3 mps 699 mmHg 19%
    14:00 +32°C° 0 mm 2 mps 698 mmHg 17%
    15:00 +32°C° 0 mm 1 mps 698 mmHg 14%
    16:00 +33°C° 0 mm 1 mps 698 mmHg 14%
    17:00 +33°C° 0 mm 1 mps 697 mmHg 13%
    18:00 +33°C° 0 mm 1 mps 697 mmHg 12%
    19:00 +32°C° 0 mm 1 mps 697 mmHg 13%
    20:00 +31°C° 0 mm 1 mps 698 mmHg 14%
    21:00 +31°C° 0 mm 2 mps 698 mmHg 15%
    22:00 +30°C° 0 mm 2 mps 698 mmHg 16%
    23:00 +30°C° 0 mm 2 mps 698 mmHg 16%

    Pasado mañana, 29 Mayo, Martes

    Tiempo Temperatura Precipitaciones Viento Presión Humedad
    00:00 +29°C° 0 mm 2 mps 697 mmHg 17%
    01:00 +28°C° 0 mm 2 mps 697 mmHg 17%
    02:00 +28°C° 0 mm 3 mps 697 mmHg 18%
    03:00 +27°C° 0 mm 3 mps 697 mmHg 18%
    04:00 +27°C° 0 mm 3 mps 697 mmHg 20%
    05:00 +26°C° 0 mm 4 mps 697 mmHg 22%
    06:00 +25°C° 0 mm 4 mps 697 mmHg 24%
    07:00 +27°C° 0 mm 5 mps 697 mmHg 23%
    08:00 +28°C° 0 mm 5 mps 698 mmHg 22%
    09:00 +30°C° 0 mm 6 mps 698 mmHg 21%
    10:00 +32°C° 0 mm 5 mps 698 mmHg 18%
    11:00 +33°C° 0 mm 4 mps 698 mmHg 16%
    12:00 +34°C° 0 mm 3 mps 698 mmHg 14%
    13:00 +35°C° 0 mm 2 mps 697 mmHg 13%
    14:00 +35°C° 0 mm 2 mps 697 mmHg 11%
    15:00 +35°C° 0 mm 1 mps 696 mmHg 10%
    16:00 +35°C° 0 mm 1 mps 696 mmHg 9%
    17:00 +35°C° 0 mm 1 mps 696 mmHg 9%
    18:00 +36°C° 0 mm 2 mps 696 mmHg 9%
    19:00 +35°C° 0 mm 2 mps 696 mmHg 10%
    20:00 +34°C° 0 mm 3 mps 696 mmHg 11%
    21:00 +33°C° 0 mm 3 mps 696 mmHg 13%
    22:00 +32°C° 0 mm 5 mps 696 mmHg 18%
    23:00 +30°C° 0 mm 6 mps 696 mmHg 24%

    30 Mayo, Miércoles

    Tiempo Temperatura Precipitaciones Viento Presión Humedad
    00:00 +29°C° 0 mm 8 mps 696 mmHg 29%
    01:00 +28°C° 0 mm 7 mps 696 mmHg 31%
    02:00 +27°C° 0 mm 7 mps 696 mmHg 33%
    03:00 +26°C° 0 mm 7 mps 695 mmHg 35%
    04:00 +24°C° 0 mm 8 mps 696 mmHg 36%
    05:00 +24°C° 0 mm 8 mps 696 mmHg 38%
    06:00 +23°C° 0 mm 8 mps 696 mmHg 40%
    07:00 +24°C° 0 mm 8 mps 696 mmHg 37%
    08:00 +27°C° 0 mm 8 mps 697 mmHg 34%
    09:00 +28°C° 0 mm 8 mps 697 mmHg 30%
    10:00 +29°C° 0 mm 8 mps 697 mmHg 27%
    11:00 +32°C° 0 mm 7 mps 697 mmHg 24%
    12:00 +33°C° 0 mm 6 mps 697 mmHg 21%
    13:00 +34°C° 0 mm 5 mps 697 mmHg 19%
    14:00 +34°C° 0 mm 3 mps 697 mmHg 17%
    15:00 +35°C° 0 mm 2 mps 696 mmHg 15%
    16:00 +35°C° 0 mm 2 mps 696 mmHg 14%
    17:00 +35°C° 0 mm 2 mps 696 mmHg 14%
    18:00 +35°C° 0 mm 2 mps 696 mmHg 13%
    19:00 +34°C° 0 mm 3 mps 697 mmHg 14%
    20:00 +34°C° 0 mm 3 mps 697 mmHg 15%
    21:00 +33°C° 0 mm 4 mps 697 mmHg 16%
    22:00 +32°C° 0 mm 5 mps 697 mmHg 17%
    23:00 +30°C° 0 mm 6 mps 697 mmHg 19%

    31 Mayo, Jueves

    Tiempo Temperatura Precipitaciones Viento Presión Humedad
    00:00 +29°C° 0 mm 8 mps 697 mmHg 21%
    01:00 +28°C° 0 mm 8 mps 697 mmHg 23%
    02:00 +27°C° 0 mm 8 mps 697 mmHg 24%
    03:00 +26°C° 0 mm 8 mps 696 mmHg 26%
    04:00 +26°C° 0 mm 8 mps 697 mmHg 29%
    05:00 +24°C° 0 mm 8 mps 697 mmHg 32%
    06:00 +24°C° 0 mm 8 mps 697 mmHg 34%
    07:00 +26°C° 0 mm 8 mps 698 mmHg 32%
    08:00 +27°C° 0 mm 8 mps 698 mmHg 31%
    09:00 +29°C° 0 mm 8 mps 699 mmHg 29%
    10:00 +30°C° 0 mm 7 mps 699 mmHg 26%
    11:00 +33°C° 0 mm 7 mps 699 mmHg 23%
    12:00 +34°C° 0 mm 6 mps 698 mmHg 21%
    13:00 +35°C° 0 mm 5 mps 698 mmHg 18%
    14:00 +35°C° 0 mm 5 mps 698 mmHg 16%
    15:00 +36°C° 0 mm 4 mps 697 mmHg 14%
    16:00 +36°C° 0 mm 4 mps 697 mmHg 13%
    17:00 +36°C° 0 mm 4 mps 697 mmHg 12%
    18:00 +36°C° 0 mm 4 mps 697 mmHg 11%
    19:00 +35°C° 0 mm 4 mps 697 mmHg 12%
    20:00 +34°C° 0 mm 4 mps 698 mmHg 12%
    21:00 +33°C° 0 mm 3 mps 698 mmHg 12%
    22:00 +31°C° 0 mm 3 mps 698 mmHg 12%
    23:00 +30°C° 0 mm 3 mps 698 mmHg 13%

    1 Junio, Viernes

    Tiempo Temperatura Precipitaciones Viento Presión Humedad
    00:00 +29°C° 0 mm 3 mps 697 mmHg 13%
    01:00 +29°C° 0 mm 3 mps 697 mmHg 15%
    02:00 +28°C° 0 mm 3 mps 697 mmHg 17%
    03:00 +27°C° 0 mm 3 mps 696 mmHg 19%
    04:00 +26°C° 0 mm 3 mps 697 mmHg 22%
    05:00 +26°C° 0 mm 3 mps 697 mmHg 26%
    06:00 +26°C° 0 mm 4 mps 697 mmHg 29%
    07:00 +27°C° 0 mm 4 mps 697 mmHg 26%
    08:00 +29°C° 0 mm 5 mps 698 mmHg 24%
    09:00 +30°C° 0 mm 5 mps 698 mmHg 22%
    10:00 +32°C° 0 mm 4 mps 698 mmHg 19%
    11:00 +34°C° 0 mm 3 mps 698 mmHg 16%
    12:00 +35°C° 0 mm 2 mps 698 mmHg 13%
    13:00 +35°C° 0 mm 2 mps 698 mmHg 12%
    14:00 +36°C° 0 mm 2 mps 697 mmHg 10%
    15:00 +35°C° 0 mm 1 mps 697 mmHg 9%
    16:00 +37°C° 0 mm 2 mps 697 mmHg 9%
    17:00 +37°C° 0 mm 2 mps 697 mmHg 9%
    18:00 +37°C° 0 mm 2 mps 697 mmHg 9%
    19:00 +36°C° 0 mm 3 mps 698 mmHg 10%
    20:00 +35°C° 0 mm 3 mps 698 mmHg 11%
    21:00 +34°C° 0 mm 3 mps 698 mmHg 12%
    22:00 +33°C° 0 mm 3 mps 698 mmHg 12%
    23:00 +32°C° 0 mm 4 mps 698 mmHg 11%
    Mostrar más